User: anonymous
Location: Stull Observatory
(42.2506°N, 77.7903°W)
Time: 04:40:58
(UTC-04:00)
Language:

Abrixas rocket - Orbit

View from above orbital plane
View from above orbital plane
View from above satellite
View from above satellite

Ground track
Ground track

The orbit data is extracted from the following two-line orbital elements,

1 25723U 99022C   14209.80742317  .00005020  00000-0  17357-3 0  7035
2 25723 048.4241 306.9914 0016268 056.8809 090.1742 15.31407352843532
Epoch (UTC): 28 July 2014 19:22:41
Eccentricity: 0.0016268
inclination: 48.4241°
perigee height: 460 km
apogee height: 483 km
right ascension of ascending node: 306.9914°
argument of perigee: 56.8809°
revolutions per day: 15.31407352
mean anomaly at epoch: 90.1742°
orbit number at epoch: 84353

The dashed part of the orbit path shows where the satellite is in the earth's shadow,  

DLR